Showing default

HULIANWANG DIGUI-06, 62328

Orbit data source: Space-Track

HULIANWANG DIGUI-06, 62328 is a payload satellite owned by Zhongguo Xingwang (CN) in LEO that was launched on Mon, 16 Dec 2024 UTC via a CHANG ZHENG 5B/YZ-2 launch vehicle from the Wenchang Satellite Launch Center (WSC). Payload-class satellites include a variety of spacecraft equipped with specific instruments for various scientific and technological missions. These include communications satellites like Starlink; space stations such as the ISS; scientific satellites like the Hubble; Earth observation satellites from companies like Planet Labs, Umbra, and HawkEye 360; GPS; miniature CubeSats for education and research; and military/defense satellites.

Loading next visibility...
Identifier
62328, 2024-240F
Orbit
LEO
Country
Flag of CNCN / PRC
Related business
Manufacturer
CAST?
Mission
Operational Civil Communications
Bus & Motor
XINGWANG CL, Unknown motor
Mass
~800 kg wet, ~800 kg dry
Launch date (UTC)
2024-12-16 (1 year ago)
Launch vehicle
CHANG ZHENG 5B/YZ-2
Launch site
Wenchang Satellite Launch Center (WSC)
Object type
Payload
Rocket body
Debris
Shape & HBR
Box + 2 Pan, 5.0 m
Radar Cross Section
5.935 m², Large (>1 m²)

Expand to show TLE details & history
Last TLE update: 2 hours ago

TLE from 2 hours ago
0 HULIANWANG DIGUI-06
1 62328U 24240F   26126.55988448  .00000027  00000-0  29776-4 0  9995
2 62328  86.5005 357.1628 0001682  67.4741 292.6571 13.24404911 67133
Epoch: 2026-05-06T13:26Z
TLE epoch observation values (Epoch: 2026-05-06T13:26:14.019Z)
Latitude
0.00001°
Longitude
-68.81424°
Altitude
1,170.347 km
Speed
7.268 km/s
True Right ascension
23h 48m 39s
True Declination
0° 00' 00"
Sunlit
Object was in daylight at epoch
Visualization orbit readout
Latitude
Unknown
Longitude
Unknown
Altitude
Unknown
Speed
Unknown
Apparent Right ascension
Unknown
Apparent Declination
Unknown
Sunlit
N/A
Visualization observer readout
Local Sidereal Time
23:44:13
Azimuth
Unknown
Elevation
Unknown
Doppler factor
Unknown
Orbital elements
Apogee altitude
1,166.33 km
Perigee altitude
1,163.793 km
Semi-major axis
7,543.198 km
Eccentricity
0.00017
Inclination
86.5005°
RAAN
357.1628°
Arg. of periapsis
67.4741°
True anomaly
292.63931°
Mean anomaly
292.6571°
Eccentric anomaly
292.64821°
Mean motion
3.31291 °/min
Orbital period
108.67 mins
BSTAR
0.000029776
Loading maneuver chart data...
Computing Atmospheric mass density...
Loading historical data...
Loading historical data...
Loading historical data...
Loading historical data...
Loading historical data...
Loading historical data...
Loading historical data...

Documentation

Showing up to 5 results
|